Temp
6 6 6 5 5 4 5 5 5 5 4 3 2 2 1 1 1 0 -0 -0 -0 -1 -1 -1 -1 -1 -1 -1 -1 -1 0 2 4 5 7 7 7 7 7 7 7 8 9 10 10
6 6 6 5 5 4 5 5 5 4 4 3 2 2 1 1 0 0 -0 -0 -0 -0 -1 -1 -1 -1 -2 -2 -2 -1 0 2 4 5 6 6 5 7 6 7 8 8 8 9 9
6 6 6 5 5 4 4 5 5 4 4 3 2 2 1 0 0 -0 -0 -0 -0 -0 -1 -1 -1 -1 -2 -2 -1 -1 -0 2 3 3 4 4 4 5 6 5 5 7 8 9 9
7 6 6 5 5 4 4 4 4 4 4 3 2 2 1 1 -1 0 0 0 -0 -0 -1 -1 -2 -2 -2 -2 -1 -1 -0 1 1 2 3 3 2 5 5 5 5 6 7 8 8
6 6 6 6 5 4 4 4 4 4 4 3 2 2 1 -2 -0 -0 0 0 -0 -0 -1 -1 -3 -2 -2 -2 -1 -1 0 0 0 2 3 4 3 4 4 5 4 5 6 8 8
7 6 6 6 5 4 4 4 4 4 3 3 2 2 1 -0 0 -0 -0 -0 -1 -1 -1 -2 -2 -2 -2 -2 -2 -1 -0 0 1 1 2 3 4 3 4 4 4 4 5 6 8
7 7 7 6 6 5 5 4 4 4 3 3 2 2 2 1 1 0 -0 -0 -1 -1 -1 -2 -2 -2 -3 -1 -2 -1 -1 0 0 1 2 2 3 4 3 3 4 4 3 5 5
7 7 7 7 6 6 6 5 4 4 3 3 3 2 1 1 0 -0 -1 -0 -1 -1 -1 -1 -2 -2 -2 -1 -1 -1 0 2 2 2 2 2 5 4 4 4 4 3 3 3 5
6 7 7 7 6 6 6 5 5 4 3 3 3 2 1 1 1 0 0 -0 -1 -1 -1 -1 -1 -1 -1 -1 0 0 3 3 3 2 2 2 5 3 4 3 3 5 3 3 4
7 7 7 6 6 6 6 6 5 4 3 3 2 2 1 1 1 1 0 -0 -0 -0 -1 -1 -1 -2 0 -0 0 1 2 2 3 2 1 3 3 3 2 3 2 3 3 3 3
6 7 7 7 6 6 6 6 5 5 4 3 3 2 2 1 1 1 1 0 -0 -1 -1 -1 -1 -1 -1 -1 -1 -1 1 2 2 1 2 3 3 4 3 3 3 3 3 4 3
6 6 6 6 6 6 6 6 5 5 4 4 3 3 3 2 2 1 1 1 0 -1 -0 0 -1 -1 -1 -1 -1 1 2 2 1 1 2 3 3 3 3 4 4 3 3 3 3
6 6 6 6 6 6 6 6 5 5 5 4 4 3 3 3 2 2 1 1 1 -0 -0 -0 -1 -0 -1 -0 0 1 0 0 0 1 2 2 3 3 3 3 3 4 4 3 3
6 6 6 6 6 6 6 6 5 5 5 4 4 3 3 3 3 2 2 1 -0 1 0 -0 0 -0 -1 -0 -1 1 -0 -0 0 1 4 2 5 5 4 3 3 3 3 3 3
6 6 6 6 6 6 6 6 6 5 4 5 4 4 3 3 3 3 2 2 1 1 1 0 0 0 -0 -0 -0 -0 -0 0 0 1 2 3 3 5 4 3 3 3 3 3 3
5 6 5 6 6 6 6 6 6 5 4 5 4 4 4 3 3 3 3 3 2 2 0 1 1 0 -0 0 -0 -0 -0 0 0 1 2 2 2 4 4 3 3 3 2 3 3
5 5 5 5 5 5 5 5 5 5 5 5 4 4 4 3 3 3 2 2 2 1 1 1 1 1 0 -0 -0 -0 0 2 2 2 3 2 1 3 3 2 3 3 3 3 3
4 5 5 5 5 5 5 5 5 5 5 4 4 4 4 3 3 3 2 2 1 1 0 0 1 1 0 -0 -0 -1 -0 1 1 3 3 1 2 3 3 3 3 3 3 3 3
4 4 4 4 5 5 4 4 5 5 4 4 4 4 3 3 3 2 2 1 1 1 0 0 2 1 1 1 0 -0 1 -0 -0 2 2 3 3 3 3 2 3 3 3 3 3
3 4 4 4 4 4 4 4 4 4 4 4 3 3 2 2 3 2 2 2 1 1 0 -0 -0 1 1 1 0 0 -0 0 0 1 2 4 4 3 2 2 2 2 2 3 3
3 3 4 4 4 4 4 4 4 4 3 3 3 2 3 2 2 1 2 2 1 1 0 -0 -1 1 1 1 -0 -0 -0 -1 -0 0 2 2 3 2 2 2 2 2 2 2 2
2 2 3 3 3 3 3 3 3 3 3 3 3 2 2 2 1 0 1 1 1 0 0 -0 -1 -1 0 1 1 0 -0 -1 0 2 1 1 1 2 2 1 1 2 2 2 2
2 2 3 2 2 3 3 3 3 3 2 2 2 2 1 1 0 1 1 1 1 -0 -1 -1 -1 -1 2 1 0 -0 -1 -2 -2 -2 -1 0 2 2 1 1 1 1 1 1 2
1 1 2 2 2 2 2 3 2 2 2 1 1 1 1 1 1 0 0 0 0 -0 -1 -1 -1 -1 0 1 -0 -1 -1 -1 -2 -2 -1 0 1 1 1 1 0 -0 -0 1 2
0 1 1 1 2 1 2 1 2 1 1 1 1 1 0 -0 -1 -0 -0 -1 -1 -1 -1 -2 -2 -1 -1 -2 -2 -2 -1 0 -2 -2 -2 0 -1 1 0 -0 1 -1 0 1 1
0 0 1 1 1 1 1 1 1 1 -0 1 0 -0 -0 -0 -1 -1 -2 -1 -2 -2 -2 -2 -3 -3 -2 -2 -2 -3 -0 1 -1 -1 -2 -1 0 -0 0 -0 0 0 0 1 1
0 0 0 -0 1 1 1 1 0 -0 -1 0 0 -1 -1 -1 -1 -1 -1 -1 -1 -2 -2 -3 -4 -3 -3 -2 -2 -1 1 1 1 1 0 0 1 -0 -0 -0 -0 -0 -0 -0 -0
Height
3152 3150 3147 3144 3141 3138 3133 3129 3124 3119 3114 3111 3107 3103 3099 3095 3092 3090 3088 3086 3083 3080 3076 3075 3073 3072 3072 3073 3075 3078 3081 3078 3082 3088 3091 3091 3091 3098 3102 3105 3109 3109 3111 3115 3119
3153 3150 3147 3144 3141 3138 3134 3129 3124 3119 3114 3111 3107 3103 3099 3095 3092 3090 3088 3085 3082 3079 3076 3074 3073 3071 3072 3072 3074 3075 3076 3077 3083 3087 3088 3086 3080 3090 3100 3102 3104 3108 3110 3114 3116
3153 3151 3148 3144 3141 3137 3135 3131 3126 3121 3116 3112 3108 3104 3099 3095 3092 3091 3088 3085 3081 3078 3075 3073 3072 3070 3071 3072 3073 3075 3073 3078 3080 3078 3079 3079 3077 3082 3093 3099 3101 3103 3106 3111 3114
3154 3151 3148 3145 3141 3138 3135 3132 3127 3123 3118 3113 3109 3104 3100 3096 3099 3092 3089 3085 3081 3078 3075 3073 3072 3071 3072 3072 3072 3072 3073 3074 3076 3074 3076 3077 3067 3076 3082 3089 3092 3097 3102 3105 3110
3154 3152 3148 3145 3141 3139 3136 3133 3129 3125 3120 3115 3109 3105 3101 3099 3096 3092 3089 3085 3081 3078 3075 3073 3073 3071 3071 3071 3071 3070 3072 3072 3071 3073 3073 3071 3070 3067 3078 3086 3091 3094 3097 3102 3105
3155 3152 3149 3146 3142 3139 3137 3134 3130 3126 3122 3116 3111 3107 3103 3101 3096 3092 3089 3086 3082 3078 3075 3073 3072 3071 3070 3071 3069 3069 3070 3071 3070 3070 3074 3072 3070 3066 3075 3084 3090 3094 3096 3099 3102
3156 3153 3150 3148 3144 3140 3137 3135 3132 3128 3123 3118 3113 3109 3102 3103 3097 3093 3089 3086 3083 3080 3076 3073 3071 3070 3070 3070 3067 3067 3068 3068 3070 3072 3076 3075 3075 3074 3076 3083 3088 3092 3095 3097 3099
3157 3155 3152 3149 3146 3142 3138 3135 3132 3129 3125 3120 3115 3111 3106 3103 3098 3093 3090 3087 3084 3081 3077 3074 3071 3070 3069 3069 3067 3066 3068 3067 3068 3072 3074 3075 3076 3078 3079 3082 3085 3089 3093 3095 3096
3159 3157 3153 3150 3147 3144 3140 3136 3133 3130 3126 3121 3116 3113 3110 3105 3100 3097 3093 3089 3086 3082 3079 3075 3073 3072 3071 3069 3069 3067 3064 3066 3068 3070 3073 3075 3076 3074 3074 3079 3083 3087 3089 3092 3094
3160 3157 3155 3151 3147 3145 3141 3138 3135 3131 3128 3122 3119 3116 3112 3109 3104 3099 3095 3091 3086 3084 3081 3078 3076 3074 3075 3071 3070 3070 3067 3067 3068 3069 3070 3073 3074 3074 3072 3076 3077 3083 3085 3089 3092
3160 3158 3155 3152 3149 3145 3142 3139 3138 3134 3129 3125 3122 3117 3113 3110 3106 3101 3097 3093 3088 3088 3086 3083 3080 3078 3077 3075 3073 3072 3071 3069 3069 3068 3069 3072 3073 3075 3075 3077 3078 3081 3083 3087 3090
3160 3158 3156 3153 3150 3146 3143 3139 3136 3135 3131 3126 3123 3119 3115 3111 3107 3103 3099 3096 3091 3089 3086 3086 3083 3079 3077 3076 3075 3074 3072 3071 3070 3068 3069 3070 3069 3070 3072 3073 3076 3077 3077 3086 3087
3159 3157 3155 3153 3150 3147 3144 3141 3136 3133 3131 3128 3125 3121 3117 3113 3109 3105 3101 3097 3093 3090 3087 3087 3084 3080 3079 3078 3076 3074 3073 3072 3072 3069 3069 3068 3066 3066 3069 3070 3071 3074 3078 3081 3085
3157 3156 3154 3152 3152 3147 3144 3140 3137 3133 3131 3131 3126 3123 3119 3113 3110 3106 3102 3098 3094 3092 3088 3088 3084 3081 3081 3079 3077 3074 3073 3072 3071 3070 3067 3068 3062 3063 3065 3067 3068 3070 3071 3075 3079
3155 3154 3152 3150 3149 3147 3144 3140 3136 3134 3131 3131 3127 3123 3119 3117 3113 3109 3104 3100 3096 3094 3091 3090 3086 3083 3082 3079 3077 3077 3073 3071 3070 3070 3069 3067 3068 3062 3063 3065 3067 3068 3068 3070 3072
3153 3152 3150 3149 3147 3145 3143 3139 3137 3136 3131 3129 3126 3123 3120 3116 3113 3110 3106 3102 3099 3095 3092 3090 3087 3084 3082 3080 3077 3075 3072 3071 3070 3069 3068 3067 3069 3063 3062 3064 3064 3065 3065 3067 3068
3150 3149 3148 3147 3146 3144 3142 3140 3138 3134 3134 3130 3125 3121 3119 3116 3113 3110 3107 3104 3101 3097 3094 3092 3089 3086 3083 3080 3078 3077 3074 3070 3069 3067 3065 3067 3067 3063 3062 3062 3061 3062 3062 3061 3061
3147 3147 3145 3144 3143 3141 3140 3139 3136 3133 3130 3128 3124 3120 3118 3116 3112 3110 3107 3107 3102 3100 3097 3094 3091 3088 3085 3083 3080 3078 3077 3077 3074 3067 3066 3065 3063 3061 3060 3059 3059 3058 3059 3058 3059
3143 3143 3142 3141 3140 3139 3139 3136 3134 3131 3129 3126 3123 3119 3118 3115 3114 3110 3108 3105 3103 3101 3100 3096 3092 3088 3086 3082 3082 3080 3079 3079 3077 3070 3068 3061 3061 3060 3059 3058 3057 3056 3056 3055 3055
3138 3139 3139 3138 3136 3136 3135 3133 3131 3129 3127 3124 3123 3121 3119 3116 3113 3111 3107 3105 3103 3101 3098 3097 3092 3088 3086 3083 3081 3080 3080 3079 3077 3071 3067 3059 3057 3057 3058 3057 3056 3055 3053 3053 3052
3135 3134 3134 3134 3133 3132 3131 3130 3128 3126 3125 3124 3120 3118 3115 3114 3111 3109 3107 3104 3101 3100 3097 3095 3092 3089 3085 3083 3082 3080 3079 3078 3078 3075 3070 3061 3057 3056 3055 3054 3053 3053 3053 3052 3050
3130 3130 3130 3129 3131 3128 3126 3126 3125 3123 3122 3119 3117 3115 3113 3110 3109 3107 3105 3103 3100 3098 3097 3094 3091 3086 3083 3080 3079 3078 3077 3077 3076 3072 3069 3066 3057 3053 3051 3052 3049 3049 3048 3047 3046
3125 3125 3126 3126 3124 3123 3121 3121 3120 3119 3118 3116 3113 3111 3110 3108 3107 3104 3102 3101 3098 3097 3095 3093 3090 3086 3081 3080 3077 3075 3075 3073 3073 3071 3065 3065 3053 3050 3049 3049 3047 3046 3044 3041 3040
3121 3121 3120 3120 3119 3119 3116 3116 3115 3115 3115 3113 3110 3107 3105 3104 3102 3099 3098 3096 3095 3093 3092 3089 3086 3085 3081 3078 3076 3072 3069 3070 3069 3066 3058 3055 3046 3047 3046 3042 3040 3039 3036 3034 3034
3116 3115 3116 3115 3114 3114 3113 3113 3111 3111 3111 3108 3105 3105 3102 3099 3097 3095 3094 3092 3090 3088 3086 3084 3080 3079 3072 3071 3068 3063 3060 3058 3058 3053 3056 3043 3044 3038 3038 3034 3029 3028 3027 3026 3025
3111 3112 3111 3110 3109 3109 3108 3108 3107 3106 3106 3103 3101 3100 3097 3095 3094 3092 3091 3090 3088 3083 3080 3077 3072 3071 3065 3065 3064 3057 3052 3049 3046 3043 3042 3039 3034 3035 3030 3028 3025 3024 3022 3021 3020
3105 3106 3105 3105 3104 3104 3103 3102 3102 3101 3100 3098 3096 3094 3092 3090 3087 3085 3082 3080 3079 3078 3076 3072 3067 3066 3058 3060 3058 3052 3044 3043 3041 3038 3037 3033 3031 3029 3026 3024 3021 3020 3018 3016 3016
Wind_Speed
13 14 16 17 18 19 23 26 27 28 25 23 23 24 22 20 18 19 18 16 14 13 13 10 11 10 10 12 17 16 21 29 32 33 27 27 40 38 22 27 24 26 26 24 18
12 14 15 16 17 19 23 26 28 29 26 24 23 24 21 19 15 19 19 18 15 16 12 10 12 10 6 8 12 17 23 25 21 28 25 31 20 32 24 22 27 25 27 22 18
12 14 16 17 16 17 21 25 27 29 25 25 22 25 21 19 15 22 19 18 16 16 12 11 12 10 6 9 12 15 25 19 16 20 25 23 25 23 36 14 19 27 31 23 19
13 15 18 19 18 17 18 23 25 28 25 26 22 25 21 17 8 18 19 18 17 15 12 11 10 8 6 7 8 17 17 20 19 21 25 22 26 26 38 15 18 25 29 32 21
15 17 19 22 21 17 16 21 25 26 26 25 22 23 22 15 17 17 18 18 17 14 12 11 7 7 4 6 9 14 14 19 18 19 25 32 32 28 29 38 11 14 25 28 22
16 19 21 23 23 18 15 18 25 25 27 22 23 24 22 17 18 16 17 18 18 16 13 10 7 5 3 6 7 6 14 15 18 13 12 24 23 16 29 42 22 3 10 24 22
15 18 19 22 25 21 16 15 21 27 22 23 25 27 27 23 20 19 18 18 17 16 14 10 8 4 6 4 8 6 8 15 18 19 9 12 17 26 24 38 39 13 3 16 20
13 16 18 21 24 24 19 16 17 24 22 25 19 21 27 23 20 20 18 17 18 16 16 11 7 4 5 4 5 5 7 10 15 20 12 10 15 14 23 35 41 22 13 9 18
12 14 16 18 20 23 21 17 17 21 26 19 25 23 24 24 23 19 18 16 17 15 17 12 8 12 6 6 3 3 6 5 9 17 13 10 9 10 20 32 40 44 23 6 8
10 12 15 17 19 20 22 17 15 21 23 22 24 15 20 21 21 20 20 19 16 17 15 16 13 8 8 13 9 6 4 3 4 6 16 11 15 8 13 27 23 43 31 11 2
9 11 13 15 17 19 19 20 14 15 23 24 23 20 19 18 19 21 19 17 19 12 10 11 12 10 8 9 8 7 2 3 1 3 11 17 16 13 15 18 31 33 43 20 14
8 10 12 13 15 17 20 20 18 9 16 22 23 22 21 18 21 20 19 18 18 14 12 7 12 10 8 10 8 7 4 4 1 4 3 9 15 18 14 19 22 27 26 33 26
9 10 11 12 14 15 18 21 18 12 7 17 20 22 23 20 22 22 22 17 18 13 12 10 10 9 8 8 9 5 6 7 7 8 5 7 14 16 17 16 17 26 28 33 31
11 11 12 12 12 14 16 18 19 15 3 14 18 18 20 20 21 22 24 20 16 16 10 8 13 12 9 8 10 4 7 7 8 8 3 4 4 9 14 18 22 23 23 24 31
13 13 12 12 12 13 15 17 19 10 2 13 16 16 17 18 18 20 22 22 17 16 12 9 11 12 9 12 10 7 10 8 8 7 8 5 6 10 9 12 18 19 25 24 27
14 13 13 13 13 13 14 15 17 6 4 9 15 18 16 17 16 17 19 23 19 16 15 9 11 12 11 10 8 11 11 9 7 5 4 3 3 7 4 4 8 13 20 21 26
16 15 14 14 13 14 14 15 8 2 15 9 17 19 15 19 14 18 16 16 20 16 13 12 11 17 15 12 10 13 11 4 2 1 3 4 8 11 10 8 9 8 10 21 25
18 17 16 15 14 14 14 15 4 8 13 16 18 16 11 18 18 20 16 8 15 18 13 10 7 14 17 15 12 7 7 6 5 7 12 9 5 2 4 7 8 11 10 15 20
20 20 17 17 15 15 15 12 7 12 13 18 19 11 8 17 17 18 13 6 11 19 11 10 7 12 17 13 9 7 5 8 6 9 7 4 8 12 13 11 8 10 10 13 14
21 22 19 18 16 16 17 16 16 15 16 16 11 10 11 12 16 12 9 9 14 16 15 9 9 11 19 9 8 6 6 5 2 5 8 9 15 8 6 5 4 7 5 11 13
21 22 21 18 16 15 16 17 20 19 14 14 17 16 14 12 19 13 9 14 9 16 17 16 7 12 14 9 9 7 4 2 5 6 5 9 7 6 9 11 16 17 12 6 9
21 21 19 16 17 17 20 21 21 20 16 17 19 13 10 17 17 12 10 14 14 16 12 14 11 10 17 14 9 10 10 8 6 6 12 13 23 8 8 15 15 16 22 23 18
21 23 22 21 21 22 19 19 20 22 17 13 14 17 16 21 12 10 19 18 20 14 9 16 6 11 9 8 8 16 12 15 14 15 20 14 12 13 24 26 27 27 25 30 30
20 20 21 21 21 21 20 19 15 14 16 21 20 20 21 20 20 12 20 18 20 18 22 20 13 15 22 23 24 25 25 21 18 19 23 26 35 30 26 26 26 25 26 28 27
20 21 19 17 17 17 18 21 22 24 22 20 22 20 19 21 14 18 15 20 22 24 24 18 18 20 32 29 31 30 28 25 23 33 26 34 27 32 27 24 25 26 24 22 24
20 20 20 21 19 20 22 24 22 22 20 20 23 22 22 22 17 21 23 20 20 20 24 28 24 19 32 28 21 26 32 32 26 26 27 29 33 25 22 23 19 19 18 20 22
21 22 22 22 20 21 23 22 22 23 23 23 24 25 28 29 28 28 29 28 30 28 28 25 21 17 25 20 17 23 15 12 17 21 22 24 23 21 21 22 16 14 13 14 15
Wind_Direction
351 358 1 0 2 8 15 15 17 15 13 10 4 2 0 1 357 1 352 346 344 335 331 333 319 303 279 261 223 221 223 235 229 223 228 237 218 219 210 208 217 215 205 206 208
2 4 4 4 7 11 15 17 18 17 14 10 5 4 360 1 359 358 346 344 337 338 331 333 330 309 279 266 235 217 227 229 229 224 244 230 214 220 212 220 227 225 215 215 210
18 15 12 10 12 16 18 19 20 18 16 13 10 6 2 5 10 353 350 345 347 344 338 340 336 324 287 255 236 235 232 233 233 224 228 238 217 211 201 218 220 214 210 207 205
31 26 24 19 15 16 20 20 21 19 19 17 17 10 11 12 6 350 351 349 349 346 341 343 341 328 305 255 247 240 242 231 240 221 226 233 222 193 198 200 214 215 210 206 201
38 32 30 26 19 15 16 19 21 18 21 21 21 16 14 18 5 356 355 359 360 356 345 339 335 316 285 287 252 244 230 240 246 222 221 232 237 197 197 208 208 224 224 208 200
40 36 31 29 26 20 14 16 18 16 20 22 25 21 17 12 5 9 6 2 4 360 352 347 327 306 328 285 234 254 234 248 240 244 245 229 247 247 207 211 217 162 221 214 206
41 39 32 28 27 27 20 11 15 15 17 22 26 24 27 16 11 10 14 11 10 11 1 354 345 318 318 292 275 232 254 241 232 231 253 225 224 229 228 214 209 231 316 218 208
42 37 32 27 26 27 24 15 9 13 14 19 20 23 28 18 17 14 8 14 17 18 9 358 359 22 356 300 313 238 248 230 231 217 235 230 230 222 234 216 217 213 253 279 210
35 30 28 28 23 23 23 21 16 15 17 17 20 21 21 18 20 21 19 22 21 17 17 15 29 37 17 317 258 253 280 223 176 214 217 232 211 221 215 213 222 217 243 276 205
20 22 20 18 20 16 20 16 22 24 23 24 21 23 5 16 18 20 19 18 19 24 14 27 22 2 10 21 24 351 354 210 199 206 219 222 231 242 265 223 230 215 230 229 313
0 4 9 12 10 11 10 13 10 23 26 24 21 18 11 10 12 16 14 17 20 8 17 29 30 25 358 5 3 358 319 18 249 290 213 226 236 235 242 224 218 222 228 215 232
337 346 351 360 2 4 4 4 3 347 19 22 20 18 16 12 15 10 10 13 16 7 22 23 20 19 20 10 347 359 358 358 4 26 199 232 245 237 244 233 224 235 240 251 250
319 326 334 344 351 357 359 357 354 349 341 10 12 16 16 20 19 14 12 13 17 10 15 19 1 19 6 6 6 9 14 355 342 324 273 278 265 238 232 231 232 227 232 239 236
309 312 319 328 338 347 351 352 349 346 319 356 357 7 13 17 16 20 20 16 13 12 23 10 26 34 17 9 2 348 341 341 334 339 327 337 311 207 234 237 233 245 245 247 236
300 305 311 317 327 337 343 345 345 343 24 341 354 355 2 12 11 18 20 27 25 19 23 358 15 23 12 4 9 333 333 316 322 315 313 221 279 277 237 235 242 241 248 249 259
292 296 303 308 314 326 332 340 342 346 303 337 348 351 349 360 3 5 12 21 24 19 11 7 2 2 356 360 9 353 344 309 302 309 271 33 304 287 251 280 249 245 248 246 250
284 289 293 300 306 315 324 334 337 297 333 326 340 343 341 353 350 358 356 7 19 11 358 352 348 2 359 13 351 354 356 338 345 306 327 320 303 251 283 294 275 258 269 244 247
278 284 287 289 296 303 312 323 285 304 318 326 332 339 338 348 346 348 355 354 359 14 333 340 329 353 356 356 340 358 12 3 320 341 315 293 266 339 255 298 299 284 276 254 250
274 279 282 285 290 295 302 304 281 306 312 319 326 336 331 336 339 343 331 332 344 4 9 346 324 335 357 358 4 334 346 324 297 302 280 273 289 299 264 277 287 292 277 274 268
272 276 281 284 286 290 291 288 287 300 307 309 313 310 319 324 336 330 324 313 331 344 355 325 305 316 339 343 2 358 333 320 298 301 325 301 304 265 234 279 352 9 279 263 267
273 277 282 286 284 283 286 289 296 301 303 303 304 301 310 320 326 323 310 310 321 329 334 339 320 320 334 314 312 315 329 304 287 273 302 308 303 319 268 260 266 279 284 308 320
272 278 278 282 283 282 289 294 295 295 296 293 299 299 299 311 315 300 291 303 316 314 321 323 308 295 306 302 291 293 298 289 286 293 270 282 289 302 287 258 289 280 275 264 276
273 276 275 280 282 286 288 288 289 295 295 292 295 291 299 308 307 282 301 311 310 307 304 318 304 305 316 308 319 322 303 293 281 275 266 272 262 281 297 298 294 296 290 283 274
274 278 279 280 282 280 282 283 287 291 291 295 293 290 298 296 294 279 296 299 301 297 304 306 283 271 281 288 297 295 289 277 274 271 270 266 279 292 297 291 285 284 280 276 276
270 273 274 272 276 283 280 278 287 292 291 293 294 299 297 290 289 293 303 304 300 301 302 290 276 282 288 289 298 295 291 290 258 263 264 290 283 307 304 303 303 270 280 280 270
268 274 274 273 275 280 282 287 292 293 288 293 293 291 287 282 279 282 289 281 282 288 290 292 282 287 287 300 292 290 296 295 278 266 261 279 288 311 307 302 309 292 292 291 287
277 271 271 270 279 281 280 285 289 290 291 294 295 289 289 292 291 286 285 283 280 272 273 274 281 292 281 295 298 296 298 288 288 287 288 279 298 300 307 307 308 318 311 311 309